Forester — DIUT — position and weather

sailwx.info

Track history (hours):
 
Tides and Currents Weather Stations Pressure Air Temp Water Temp Dewpoint Dewpoint Depression Visibility Wind Speed Wind Dir Waves Ship Positions

Forester

Last reported at 2014-Oct-24 04:18 UTC. Time now 2014-Oct-24 15:25 UTC.
Position N 36°19' W 007°55'.

Length 100 m; draft 6.5 m.

Type: Ship. MMSI: 211233870.

Date/timePositionNaut miles runAvg speedWind from/ knotsBaromVisibWave heightAir tempDewpointWater temp
2014-Oct-24 04:18N 36°19' W 007°55'4110.3
2014-Oct-24 00:20N 36°29' W 008°44'1110.6
2014-Oct-23 23:20N 36°31' W 008°57'69 9.7
2014-Oct-23 16:11N 37°29' W 009°45'710.5
2014-Oct-23 15:32N 37°35' W 009°47'1110.7
2014-Oct-23 14:33N 37°46' W 009°50'1110.6
2014-Oct-23 13:33N 37°56' W 009°52'1110.6
2014-Oct-23 12:33N 38°07' W 009°55'1110.7
2014-Oct-23 11:33N 38°17' W 009°58'1010.5
2014-Oct-23 10:33N 38°27' W 010°01'1110.8
2014-Oct-23 09:32N 38°38' W 010°04'1111.2
2014-Oct-23 08:33N 38°49' W 010°05'1211.4
2014-Oct-23 07:31N 39°01' W 010°05'2211.2
2014-Oct-23 05:32N 39°23' W 010°05'3411.0
2014-Oct-23 02:24N 39°57' W 010°05'  
2014-Oct-20 08:33N 49°50' W 003°24'1010.5
2014-Oct-20 07:33N 49°55' W 003°09'11 9.4
2014-Oct-20 06:20N 50°00' W 002°54'7 8.6
2014-Oct-20 05:33N 50°02' W 002°44'8 8.1
2014-Oct-20 04:32N 50°05' W 002°32'48 9.6
2014-Oct-19 23:33N 50°25' W 001°24'1111.0
2014-Oct-19 22:33N 50°28' W 001°07'1010.5
2014-Oct-19 21:33N 50°29' W 000°51'10 9.2
2014-Oct-19 20:31N 50°30' W 000°36'68 8.3
2014-Oct-19 12:20N 50°53' E 001°05'7 9.2
2014-Oct-19 11:33N 50°57' E 001°14'9 8.5
2014-Oct-19 10:33N 51°03' E 001°24'8 7.9
2014-Oct-19 09:33N 51°08' E 001°34'7 6.9
2014-Oct-19 08:33N 51°13' E 001°42'9 8.6
2014-Oct-19 07:33N 51°20' E 001°49'1010.1
2014-Oct-19 06:33N 51°29' E 001°56'1211.7
2014-Oct-19 05:33N 51°37' E 002°09'1312.2
2014-Oct-19 04:31N 51°47' E 002°23'2611.5
2014-Oct-19 02:14N 52°07' E 002°51'10310.4
2014-Oct-18 16:17N 53°27' E 004°38'710.1
2014-Oct-18 15:33N 53°30' E 004°50'10 9.9
2014-Oct-18 14:33N 53°34' E 005°05'10 9.7
2014-Oct-18 13:33N 53°37' E 005°20'1010.0
2014-Oct-18 12:33N 53°40' E 005°37'9 8.6
2014-Oct-18 11:34N 53°42' E 005°50'8 7.9
2014-Oct-18 10:33N 53°45' E 006°03'1311.3
2014-Oct-18 09:25N 53°49' E 006°24'4311.2
2014-Oct-18 05:33N 53°59' E 007°35'10 9.7
2014-Oct-18 04:33N 53°53' E 007°49'1010.2
2014-Oct-18 03:33N 53°50' E 008°05'10 9.6
2014-Oct-18 02:33N 53°43' E 008°17'1110.6
2014-Oct-18 01:33N 53°36' E 008°30'10 9.9
2014-Oct-18 00:33N 53°26' E 008°29'6 5.3
2014-Oct-17 23:26N 53°20' E 008°30'0 0.0
2014-Oct-17 22:32N 53°20' E 008°30'0 0.0
2014-Oct-17 21:32N 53°20' E 008°30'0 0.0
2014-Oct-17 20:32N 53°20' E 008°30'0 0.0
2014-Oct-17 19:29N 53°20' E 008°30'0 0.0
2014-Oct-17 18:32N 53°20' E 008°30'0 0.0
2014-Oct-17 17:29N 53°20' E 008°30'0 0.0
2014-Oct-17 16:32N 53°20' E 008°30'0 0.0
2014-Oct-17 15:23N 53°20' E 008°30'0 0.0
2014-Oct-17 14:29N 53°20' E 008°30'0 0.0
2014-Oct-17 13:20N 53°20' E 008°30'0 0.0
2014-Oct-17 12:32N 53°20' E 008°30'0 0.0
2014-Oct-17 11:32N 53°20' E 008°30'0 0.0
2014-Oct-17 10:32N 53°20' E 008°30'0 0.0
2014-Oct-17 09:32N 53°20' E 008°30'0 0.0
2014-Oct-17 08:32N 53°20' E 008°30'0 0.0
2014-Oct-17 07:32N 53°20' E 008°30'0 0.0
2014-Oct-17 06:32N 53°20' E 008°30'0 0.0
2014-Oct-17 05:32N 53°20' E 008°30'0 0.0
2014-Oct-17 04:32N 53°20' E 008°30'0 0.0
2014-Oct-17 03:32N 53°20' E 008°30'0 0.0
2014-Oct-17 02:32N 53°20' E 008°30'0 0.0
2014-Oct-17 01:31N 53°20' E 008°30'0 0.0
2014-Oct-17 00:31N 53°20' E 008°29'0 0.0
2014-Oct-16 23:28N 53°20' E 008°30'0 0.0
2014-Oct-16 22:31N 53°20' E 008°30'0 0.0
2014-Oct-16 21:31N 53°20' E 008°30'0 0.0
2014-Oct-16 20:28N 53°20' E 008°30'0 0.0
2014-Oct-16 19:31N 53°20' E 008°30'0 0.0
2014-Oct-16 18:31N 53°20' E 008°30'0 0.0
2014-Oct-16 17:31N 53°20' E 008°30'0 0.0
2014-Oct-16 16:31N 53°20' E 008°30'0 0.0
2014-Oct-16 15:28N 53°20' E 008°30'0 0.0
2014-Oct-16 14:28N 53°20' E 008°30'0 0.0
2014-Oct-16 13:28N 53°20' E 008°30'0 0.0
2014-Oct-16 12:31N 53°20' E 008°30'0 0.0
2014-Oct-16 11:31N 53°20' E 008°30'0 0.0
2014-Oct-16 10:31N 53°20' E 008°30'0 0.0
2014-Oct-16 09:31N 53°20' E 008°30'0 0.0
2014-Oct-16 08:31N 53°20' E 008°30'0 0.0
2014-Oct-16 07:31N 53°20' E 008°30'0 0.0
2014-Oct-16 06:31N 53°20' E 008°30'0 0.0
2014-Oct-16 05:31N 53°20' E 008°30'0 0.0
2014-Oct-16 04:31N 53°20' E 008°30'0 0.0
2014-Oct-16 03:31N 53°20' E 008°30'0 0.0
2014-Oct-16 02:31N 53°20' E 008°30'0 0.0
2014-Oct-16 01:31N 53°20' E 008°30'0 0.0
2014-Oct-16 00:31N 53°20' E 008°30'0 0.0
2014-Oct-15 23:31N 53°20' E 008°30'0 0.0
2014-Oct-15 22:31N 53°20' E 008°30'0 0.0
2014-Oct-15 21:31N 53°20' E 008°30'0 0.0
2014-Oct-15 20:31N 53°20' E 008°30'0 0.0
2014-Oct-15 19:31N 53°20' E 008°30'0 0.0
2014-Oct-15 18:31N 53°20' E 008°30'0 0.0
2014-Oct-15 17:31N 53°20' E 008°30'0 0.0
2014-Oct-15 16:31N 53°20' E 008°30'0 0.0
2014-Oct-15 15:33N 53°20' E 008°30'0 0.0
2014-Oct-15 14:33N 53°20' E 008°30'0 0.0
2014-Oct-15 13:33N 53°20' E 008°30'0 0.0
2014-Oct-15 12:33N 53°20' E 008°30'0 0.0
2014-Oct-15 11:33N 53°20' E 008°30'0 0.0
2014-Oct-15 10:33N 53°20' E 008°30'0 0.0
2014-Oct-15 09:33N 53°20' E 008°30'0 0.0
2014-Oct-15 08:33N 53°20' E 008°30'0 0.0
2014-Oct-15 07:33N 53°20' E 008°30'0 0.0
2014-Oct-15 06:33N 53°20' E 008°30'0 0.0
2014-Oct-15 05:33N 53°20' E 008°30'0 0.0
2014-Oct-15 04:33N 53°20' E 008°30'0 0.0
2014-Oct-15 03:30N 53°20' E 008°30'0 0.0
2014-Oct-15 02:30N 53°20' E 008°30'0 0.0
2014-Oct-15 01:33N 53°20' E 008°30'0 0.0
2014-Oct-15 00:33N 53°20' E 008°30'0 0.0
2014-Oct-14 23:33N 53°20' E 008°30'0 0.0
2014-Oct-14 22:33N 53°20' E 008°30'0 0.0
2014-Oct-14 21:33N 53°20' E 008°30'0 0.0
2014-Oct-14 20:33N 53°20' E 008°30'0 0.0
2014-Oct-14 19:33N 53°20' E 008°30'0 0.0
2014-Oct-14 18:30N 53°20' E 008°30'0 0.0
2014-Oct-14 17:33N 53°20' E 008°30'7 6.8
2014-Oct-14 16:33N 53°27' E 008°29'9 9.4
2014-Oct-14 15:33N 53°36' E 008°30'1212.2
2014-Oct-14 14:33N 53°44' E 008°14'1212.1
2014-Oct-14 13:33N 53°55' E 008°05'9 8.9
2014-Oct-14 12:33N 53°60' E 008°18'9 8.7
2014-Oct-14 11:33N 53°58' E 008°33'9 8.7
2014-Oct-14 10:33N 53°52' E 008°43'1 0.8
2014-Oct-14 09:31N 53°51' E 008°43'0 0.0
2014-Oct-14 08:31N 53°51' E 008°43'0 0.0
2014-Oct-14 07:31N 53°51' E 008°43'0 0.0
2014-Oct-14 06:31N 53°51' E 008°43'0 0.0
2014-Oct-14 05:31N 53°51' E 008°43'0 0.0
2014-Oct-14 04:31N 53°51' E 008°43'  
Track history (hours):
 
Tides and Currents Weather Stations Pressure Air Temp Water Temp Dewpoint Dewpoint Depression Visibility Wind Speed Wind Dir Waves Ship Positions

Forester

Last reported at 2014-Oct-24 04:18 UTC. Time now 2014-Oct-24 15:25 UTC.
Position N 36°19' W 007°55'.

Length 100 m; draft 6.5 m.

Type: Ship. MMSI: 211233870.

Date/timePositionNaut miles runAvg speedWind from/ knotsBaromVisibWave heightAir tempDewpointWater temp
2014-Oct-24 04:18N 36°19' W 007°55'4110.3
2014-Oct-24 00:20N 36°29' W 008°44'1110.6
2014-Oct-23 23:20N 36°31' W 008°57'69 9.7
2014-Oct-23 16:11N 37°29' W 009°45'710.5
2014-Oct-23 15:32N 37°35' W 009°47'1110.7
2014-Oct-23 14:33N 37°46' W 009°50'1110.6
2014-Oct-23 13:33N 37°56' W 009°52'1110.6
2014-Oct-23 12:33N 38°07' W 009°55'1110.7
2014-Oct-23 11:33N 38°17' W 009°58'1010.5
2014-Oct-23 10:33N 38°27' W 010°01'1110.8
2014-Oct-23 09:32N 38°38' W 010°04'1111.2
2014-Oct-23 08:33N 38°49' W 010°05'1211.4
2014-Oct-23 07:31N 39°01' W 010°05'2211.2
2014-Oct-23 05:32N 39°23' W 010°05'3411.0
2014-Oct-23 02:24N 39°57' W 010°05'  
2014-Oct-20 08:33N 49°50' W 003°24'1010.5
2014-Oct-20 07:33N 49°55' W 003°09'11 9.4
2014-Oct-20 06:20N 50°00' W 002°54'7 8.6
2014-Oct-20 05:33N 50°02' W 002°44'8 8.1
2014-Oct-20 04:32N 50°05' W 002°32'48 9.6
2014-Oct-19 23:33N 50°25' W 001°24'1111.0
2014-Oct-19 22:33N 50°28' W 001°07'1010.5
2014-Oct-19 21:33N 50°29' W 000°51'10 9.2
2014-Oct-19 20:31N 50°30' W 000°36'68 8.3
2014-Oct-19 12:20N 50°53' E 001°05'7 9.2
2014-Oct-19 11:33N 50°57' E 001°14'9 8.5
2014-Oct-19 10:33N 51°03' E 001°24'8 7.9
2014-Oct-19 09:33N 51°08' E 001°34'7 6.9
2014-Oct-19 08:33N 51°13' E 001°42'9 8.6
2014-Oct-19 07:33N 51°20' E 001°49'1010.1
2014-Oct-19 06:33N 51°29' E 001°56'1211.7
2014-Oct-19 05:33N 51°37' E 002°09'1312.2
2014-Oct-19 04:31N 51°47' E 002°23'2611.5
2014-Oct-19 02:14N 52°07' E 002°51'10310.4
2014-Oct-18 16:17N 53°27' E 004°38'710.1
2014-Oct-18 15:33N 53°30' E 004°50'10 9.9
2014-Oct-18 14:33N 53°34' E 005°05'10 9.7
2014-Oct-18 13:33N 53°37' E 005°20'1010.0
2014-Oct-18 12:33N 53°40' E 005°37'9 8.6
2014-Oct-18 11:34N 53°42' E 005°50'8 7.9
2014-Oct-18 10:33N 53°45' E 006°03'1311.3
2014-Oct-18 09:25N 53°49' E 006°24'4311.2
2014-Oct-18 05:33N 53°59' E 007°35'10 9.7
2014-Oct-18 04:33N 53°53' E 007°49'1010.2
2014-Oct-18 03:33N 53°50' E 008°05'10 9.6
2014-Oct-18 02:33N 53°43' E 008°17'1110.6
2014-Oct-18 01:33N 53°36' E 008°30'10 9.9
2014-Oct-18 00:33N 53°26' E 008°29'6 5.3
2014-Oct-17 23:26N 53°20' E 008°30'0 0.0
2014-Oct-17 22:32N 53°20' E 008°30'0 0.0
2014-Oct-17 21:32N 53°20' E 008°30'0 0.0
2014-Oct-17 20:32N 53°20' E 008°30'0 0.0
2014-Oct-17 19:29N 53°20' E 008°30'0 0.0
2014-Oct-17 18:32N 53°20' E 008°30'0 0.0
2014-Oct-17 17:29N 53°20' E 008°30'0 0.0
2014-Oct-17 16:32N 53°20' E 008°30'0 0.0
2014-Oct-17 15:23N 53°20' E 008°30'0 0.0
2014-Oct-17 14:29N 53°20' E 008°30'0 0.0
2014-Oct-17 13:20N 53°20' E 008°30'0 0.0
2014-Oct-17 12:32N 53°20' E 008°30'0 0.0
2014-Oct-17 11:32N 53°20' E 008°30'0 0.0
2014-Oct-17 10:32N 53°20' E 008°30'0 0.0
2014-Oct-17 09:32N 53°20' E 008°30'0 0.0
2014-Oct-17 08:32N 53°20' E 008°30'0 0.0
2014-Oct-17 07:32N 53°20' E 008°30'0 0.0
2014-Oct-17 06:32N 53°20' E 008°30'0 0.0
2014-Oct-17 05:32N 53°20' E 008°30'0 0.0
2014-Oct-17 04:32N 53°20' E 008°30'0 0.0
2014-Oct-17 03:32N 53°20' E 008°30'0 0.0
2014-Oct-17 02:32N 53°20' E 008°30'0 0.0
2014-Oct-17 01:31N 53°20' E 008°30'0 0.0
2014-Oct-17 00:31N 53°20' E 008°29'0 0.0
2014-Oct-16 23:28N 53°20' E 008°30'0 0.0
2014-Oct-16 22:31N 53°20' E 008°30'0 0.0
2014-Oct-16 21:31N 53°20' E 008°30'0 0.0
2014-Oct-16 20:28N 53°20' E 008°30'0 0.0
2014-Oct-16 19:31N 53°20' E 008°30'0 0.0
2014-Oct-16 18:31N 53°20' E 008°30'0 0.0
2014-Oct-16 17:31N 53°20' E 008°30'0 0.0
2014-Oct-16 16:31N 53°20' E 008°30'0 0.0
2014-Oct-16 15:28N 53°20' E 008°30'0 0.0
2014-Oct-16 14:28N 53°20' E 008°30'0 0.0
2014-Oct-16 13:28N 53°20' E 008°30'0 0.0
2014-Oct-16 12:31N 53°20' E 008°30'0 0.0
2014-Oct-16 11:31N 53°20' E 008°30'0 0.0
2014-Oct-16 10:31N 53°20' E 008°30'0 0.0
2014-Oct-16 09:31N 53°20' E 008°30'0 0.0
2014-Oct-16 08:31N 53°20' E 008°30'0 0.0
2014-Oct-16 07:31N 53°20' E 008°30'0 0.0
2014-Oct-16 06:31N 53°20' E 008°30'0 0.0
2014-Oct-16 05:31N 53°20' E 008°30'0 0.0
2014-Oct-16 04:31N 53°20' E 008°30'0 0.0
2014-Oct-16 03:31N 53°20' E 008°30'0 0.0
2014-Oct-16 02:31N 53°20' E 008°30'0 0.0
2014-Oct-16 01:31N 53°20' E 008°30'0 0.0
2014-Oct-16 00:31N 53°20' E 008°30'0 0.0
2014-Oct-15 23:31N 53°20' E 008°30'0 0.0
2014-Oct-15 22:31N 53°20' E 008°30'0 0.0
2014-Oct-15 21:31N 53°20' E 008°30'0 0.0
2014-Oct-15 20:31N 53°20' E 008°30'0 0.0
2014-Oct-15 19:31N 53°20' E 008°30'0 0.0
2014-Oct-15 18:31N 53°20' E 008°30'0 0.0
2014-Oct-15 17:31N 53°20' E 008°30'0 0.0
2014-Oct-15 16:31N 53°20' E 008°30'0 0.0
2014-Oct-15 15:33N 53°20' E 008°30'0 0.0
2014-Oct-15 14:33N 53°20' E 008°30'0 0.0
2014-Oct-15 13:33N 53°20' E 008°30'0 0.0
2014-Oct-15 12:33N 53°20' E 008°30'0 0.0
2014-Oct-15 11:33N 53°20' E 008°30'0 0.0
2014-Oct-15 10:33N 53°20' E 008°30'0 0.0
2014-Oct-15 09:33N 53°20' E 008°30'0 0.0
2014-Oct-15 08:33N 53°20' E 008°30'0 0.0
2014-Oct-15 07:33N 53°20' E 008°30'0 0.0
2014-Oct-15 06:33N 53°20' E 008°30'0 0.0
2014-Oct-15 05:33N 53°20' E 008°30'0 0.0
2014-Oct-15 04:33N 53°20' E 008°30'0 0.0
2014-Oct-15 03:30N 53°20' E 008°30'0 0.0
2014-Oct-15 02:30N 53°20' E 008°30'0 0.0
2014-Oct-15 01:33N 53°20' E 008°30'0 0.0
2014-Oct-15 00:33N 53°20' E 008°30'0 0.0
2014-Oct-14 23:33N 53°20' E 008°30'0 0.0
2014-Oct-14 22:33N 53°20' E 008°30'0 0.0
2014-Oct-14 21:33N 53°20' E 008°30'0 0.0
2014-Oct-14 20:33N 53°20' E 008°30'0 0.0
2014-Oct-14 19:33N 53°20' E 008°30'0 0.0
2014-Oct-14 18:30N 53°20' E 008°30'0 0.0
2014-Oct-14 17:33N 53°20' E 008°30'7 6.8
2014-Oct-14 16:33N 53°27' E 008°29'9 9.4
2014-Oct-14 15:33N 53°36' E 008°30'1212.2
2014-Oct-14 14:33N 53°44' E 008°14'1212.1
2014-Oct-14 13:33N 53°55' E 008°05'9 8.9
2014-Oct-14 12:33N 53°60' E 008°18'9 8.7
2014-Oct-14 11:33N 53°58' E 008°33'9 8.7
2014-Oct-14 10:33N 53°52' E 008°43'1 0.8
2014-Oct-14 09:31N 53°51' E 008°43'0 0.0
2014-Oct-14 08:31N 53°51' E 008°43'0 0.0
2014-Oct-14 07:31N 53°51' E 008°43'0 0.0
2014-Oct-14 06:31N 53°51' E 008°43'0 0.0
2014-Oct-14 05:31N 53°51' E 008°43'0 0.0
2014-Oct-14 04:31N 53°51' E 008°43'  

Dump ship's entire track history